Location: Apollinopolis Magna
(24.9792°N, 32.8772°E)
Time: 19:42:10
(UTC+00:00)

CSL-04 Rocket - Pass Details

Date: 02 March 2021
Orbit: 805 x 861 km, 98.9° (Epoch: 10 April)

Event Time Altitude Azimuth Distance (km) Brightness Sun altitude
Rises 16:51:01 0° 155° (SSE) 3,420 6.6 -14.3°
Reaches altitude 10° 16:53:26 10° 150° (SSE) 2,488 5.9 -14.9°
Maximum altitude 16:58:49 54° 74° (ENE) 1,037 3.8 -16.1°
Drops below altitude 10° 17:04:11 10° 359° (N) 2,490 6.2 -17.3°
Sets 17:06:36 0° 354° (N) 3,423 6.9 -17.9°
